Current weather by "City, St" or "zip code"  
 
Advertise Here

Current Conditions: Meacham, OR

Overcast


38.0 F

Last Updated on Jan 20 2021, 11:56 am PST
Humidity: 44%
Wind Speed: N 0.0 mph
Barometer 30.09 in
Dewpoint: 18.0 F
Visibility: 10.00 mi
Precip: --
Heat Index: NA
Wind Chill: NA
Current conditions at:

Meacham, OR (KMEH)

Lat: 45.51176 Lon: 118.42466

Local Radar Image active severe weather and emergency alerts image image weather storm and storm spotter reports image weather observation monitoring service image
Local
Radar
Active
Alerts
Storm Reports Obs
Monitoring

Sign-up For Email & Text Message Weather Alert Notification Services


Advertise Here

Observation History for Meacham, OR


Time Wind
(mph)
Vis
(mi)
Weather Precip (in) Temperature (F) Relative
Humidity
Wind
Chill
(F)
Heat
Index
(F)
Pressure
Air Dwpt altimeter
(in)
sea level
(mb)
Rmks
11:56 am PST N 0.0 10.00 Overcast -- 38.0 18.0 44% NA NA 30.09 1021.2
10:56 am PST N 0.0 10.00 Overcast -- 37.0 18.0 46% NA NA 30.11 1021.9
9:56 am PST N 0.0 10.00 Overcast -- 36.0 16.0 44% NA NA 30.11 1021.8
8:56 am PST N 0.0 10.00 Mostly Cloudy -- 33.0 16.0 49% NA NA 30.11 1022.1
7:56 am PST N 0.0 10.00 Overcast -- 31.0 17.1 56% NA NA 30.10 1022.1
6:56 am PST N 0.0 10.00 Overcast -- 31.0 16.0 54% NA NA 30.11 1022.4
5:56 am PST N 0.0 10.00 Overcast -- 29.0 16.0 58% NA NA 30.12 1022.7
4:56 am PST N 0.0 10.00 Overcast -- 29.0 15.1 56% NA NA 30.13 1022.6
3:56 am PST N 0.0 10.00 Mostly Cloudy -- 27.0 16.0 63% NA NA 30.15 1023.3
2:56 am PST N 0.0 10.00 Partly Cloudy -- 25.0 15.1 66% NA NA 30.17 1024.2
1:56 am PST N 0.0 10.00 Fair -- 25.0 16.0 69% NA NA 30.18 1024.2
12:56 am PST N 0.0 10.00 Fair -- 25.0 17.1 72% NA NA 30.20 1025.2
11:56 pm PST N 0.0 10.00 Fair -- 27.0 17.1 66% NA NA 30.21 1025.8
10:56 pm PST N 0.0 10.00 Fair -- 29.0 18.0 63% NA NA 30.23 1026.2
9:56 pm PST N 0.0 10.00 Fair -- 29.0 18.0 63% NA NA 30.25 1027.7
8:56 pm PST N 0.0 10.00 Fair -- 29.0 19.0 66% NA NA 30.25 1028.6
7:56 pm PST N 0.0 10.00 Fair -- 29.0 19.0 66% NA NA 30.26 1029.1
6:56 pm PST N 0.0 10.00 Fair -- 29.0 19.0 66% NA NA 30.27 1029.5
5:56 pm PST N 0.0 10.00 Fair -- 30.0 19.0 64% NA NA 30.28 1029.7
4:56 pm PST N 0.0 10.00 Fair -- 34.0 19.9 56% NA NA 30.29 1029.7
3:56 pm PST N 0.0 10.00 Fair -- 38.0 19.0 46% NA NA 30.31 1030.0
2:56 pm PST N 0.0 10.00 Fair -- 39.0 19.9 46% NA NA 30.33 1030.5
1:56 pm PST N 0.0 10.00 Fair -- 40.0 18.0 41% NA NA 30.35 1030.9
12:56 pm PST N 0.0 10.00 Fair -- 37.0 18.0 46% NA NA 30.37 1031.9

Regional Weather Observation


Meacham, OR (KMEH)

Overcast
38.0 F

La Grande/Union County Airport, OR (KLGD)

Mostly Cloudy and Breezy
37.0 F

Hermiston, Hermiston Municipal Airport, OR (KHRI)

Overcast
41.0 F

Walla Walla Regional Airport, WA (KALW)

Overcast
36.0 F

Tri-Cities Airport, WA (KPSC)

A Few Clouds
37.0 F

Richland Airport, WA (KRLD)

Fair
38.0 F